Погода в Хикори

США     35°43′50″N   81°20′17″W
темп.,
°C
ветер,
м/с
пор.,
м/с
влажн.,
%
обл.,
%
осадки,
мм/ч
давл.,
гПа
погр.,
м
15 мая, сб
сб1523:00+10с11695 0.0 102510
02:00+8ссз118026 0.0 102510
05:00+8зсз11845 0.0 102611
08:00+11сз12700 0.0 1027113
11:00+20ююз11424 0.0 1026873
14:00+23ююв22273 0.0 10242690
17:00+23ююв3430100 0.0 10222562
20:00+16ю225989 0.0 102218
16 мая, вс
вс1623:00+13ююз116095 0.0 102411
02:00+13сз115999 0.0 102310
05:00+13в1162100 0.0 102310
08:00+14сз1164100 0.0 102570
11:00+16юз126498 0.0 1025196
14:00+17с2263100 0.0 1024368
17:00+18св2259100 0.0 1023464
20:00+16всв227598 0.0 102351
17 мая, пн
пн1723:00+15всв1174100 0.0 102313
02:00+14ссв0075100 0.0 102310
05:00+13св018179 0.0 102310
08:00+15ююв017399 0.0 1024154
11:00+21ююв1257100 0.0 1024817
14:00+21ю1259100 0.0 10231051
17:00+22в3366100 0.4 1022503
20:00+17в2689100 1.3 1023177
18 мая, вт
вт1823:00+14св259784 0.3 1025136
02:00+13св2297100 0.6 102663
05:00+12св2398100 0.0 102658
08:00+14всв1394100 0.0 1027183
11:00+19в2269100 0.0 1027842
14:00+22вюв1262100 0.1 10261140
17:00+22в2266100 0.0 1024666
20:00+20в1277100 0.1 102515
19 мая, ср
ср1923:00+17всв1287100 0.0 102619
02:00+17с118699 0.0 102612
05:00+16всв1187100 0.0 102619
08:00+16в1286100 0.0 1028116
11:00+19вюв117597 0.1 1029419
14:00+24юв225148 0.2 10281542
17:00+26в134028 0.0 10252038
20:00+21юв256363 0.0 102690